User: anonymous   Login
Location: Unspecified
(0.0000°N, 0.0000°E)
Time: 05:20:37
(UTC+02:00)
Language:

Hubble Space Telescope - Orbit

View from above orbital plane
View from above orbital plane
View from above satellite
View from above satellite

Ground track
Ground track

The orbit data is extracted from the following two-line orbital elements,

1 20580U 90037B   15184.07177259  .00001004  00000-0  53066-4 0  9990
2 20580 028.4705 049.3749 0003125 050.5654 077.0170 15.07510753182215
Epoch (UTC): 03 July 2015 01:43:21
Eccentricity: 0.0003125
inclination: 28.4705°
perigee height: 541 km
apogee height: 546 km
right ascension of ascending node: 49.3749°
argument of perigee: 50.5654°
revolutions per day: 15.07510753
mean anomaly at epoch: 77.0170°
orbit number at epoch: 18221

The dashed part of the orbit path shows where the satellite is in the earth's shadow,  

DLR